Temp
55 55 55 53 53 51 52 53 52 51 51 52 52 51 51 50 49 48 47 47 46 46 45 45 45 44 43 42 41 41 40 40 38 43 43 44 43 43 46 45 46 45 46
56 55 55 52 51 51 53 53 51 52 52 52 52 51 51 51 50 49 48 49 47 47 47 45 46 48 43 43 41 40 40 40 39 39 41 41 42 43 43 42 46 49 45
54 54 52 53 52 53 54 53 52 52 52 52 52 51 51 51 50 49 49 49 48 47 47 46 46 44 43 42 41 40 40 43 39 38 39 40 41 41 41 41 41 42 46
55 54 55 55 55 56 55 53 53 53 53 52 52 52 52 52 51 50 49 48 47 48 47 46 46 45 44 43 42 42 42 40 39 38 38 39 39 40 38 38 39 40 42
56 55 57 57 55 54 53 54 54 53 55 55 53 52 52 51 52 50 49 48 47 47 46 46 46 47 52 49 46 44 42 41 40 40 39 38 37 37 37 39 40 43 41
57 57 59 55 54 54 54 53 52 53 53 53 53 53 51 53 56 55 51 48 47 47 46 45 45 51 50 55 56 56 50 42 41 39 38 37 38 37 41 42 40 40 39
58 59 57 57 55 55 55 53 53 53 53 53 53 52 52 50 57 57 55 48 47 46 45 45 45 48 49 45 50 53 51 53 52 42 39 38 40 43 43 37 39 40 38
57 59 59 58 57 57 54 54 55 54 53 54 53 53 51 51 56 57 57 48 46 46 45 44 44 44 44 45 44 43 43 42 43 44 40 41 44 42 39 39 37 34 33
56 58 59 59 58 56 53 55 55 53 52 54 55 52 52 51 55 57 55 47 45 45 44 44 43 43 49 54 44 42 41 41 47 50 50 49 48 48 45 35 30 29 29
58 59 61 59 59 56 56 56 56 55 56 55 53 53 54 52 54 56 53 46 44 43 43 43 50 45 51 53 44 40 38 38 39 38 38 38 39 38 43 34 32 29 26
58 57 56 55 57 58 56 54 54 54 53 51 52 52 52 52 50 55 54 47 47 43 42 42 42 52 52 52 51 40 40 40 41 35 33 32 33 33 33 33 32 31 29
54 54 53 53 56 56 52 50 49 51 50 50 49 47 49 48 52 54 55 53 50 45 42 42 42 50 50 50 48 49 50 43 35 33 31 31 30 30 31 31 32 32 32
51 51 51 51 52 51 51 48 48 49 50 50 49 50 48 46 47 54 55 54 53 44 43 45 47 49 49 47 50 49 45 35 33 31 31 30 30 29 30 31 32 32 32
51 50 49 49 48 48 50 49 50 48 50 50 49 50 49 46 46 46 50 51 52 47 48 45 44 44 44 42 41 39 35 33 32 31 30 29 29 29 29 30 29 29 32
50 49 49 48 48 46 48 48 51 51 53 51 51 52 48 47 47 49 49 47 45 43 39 37 35 35 34 34 33 33 32 32 32 30 30 29 30 30 30 30 29 28 28
50 50 48 46 45 44 44 43 48 50 52 52 53 53 48 54 52 50 51 49 47 47 37 34 33 33 33 33 32 32 31 35 31 31 30 29 30 29 29 30 30 32 30
49 49 47 47 44 43 42 43 42 43 49 50 51 51 51 50 50 50 49 48 48 46 35 33 33 33 33 32 32 31 31 32 31 31 30 29 30 30 31 30 33 32 31
48 49 46 45 44 42 42 42 42 42 42 41 48 49 50 50 49 48 48 47 43 40 34 33 33 33 32 32 32 31 31 31 30 30 30 30 29 30 29 32 34 32 31
47 46 45 43 42 43 42 41 42 41 41 40 40 45 48 49 48 48 47 39 39 36 33 33 33 33 32 32 32 32 31 31 31 30 30 29 29 29 30 33 33 34 34
46 48 46 43 41 41 41 41 40 40 40 40 41 41 43 44 42 42 38 36 37 36 34 34 33 33 32 32 32 32 31 31 30 30 29 29 29 30 30 33 33 31 31
46 44 47 42 42 42 42 42 42 41 41 41 41 42 45 42 40 40 39 37 37 36 35 35 33 33 32 32 31 31 31 31 30 30 29 29 29 29 31 33 33 32 32
46 44 42 43 41 41 41 42 42 42 42 40 37 41 45 39 39 39 38 38 37 37 38 36 33 33 33 32 32 32 31 31 31 30 30 30 29 30 30 32 32 32 32
44 43 42 40 41 43 41 40 40 41 40 40 39 40 41 38 38 38 38 38 38 38 37 35 34 33 32 32 32 32 32 31 32 31 30 30 29 32 34 33 33 32 31
43 42 41 40 39 39 38 38 38 39 39 39 39 40 39 38 38 38 38 38 37 37 37 34 34 34 33 32 32 32 31 32 32 32 32 32 32 34 34 33 32 32 31
40 40 39 38 39 37 37 36 36 37 38 39 38 39 38 38 38 38 37 37 37 36 35 33 33 33 34 34 33 33 33 35 33 34 32 33 34 34 33 33 32 32 31
38 38 37 37 37 37 37 37 37 37 37 38 38 38 39 39 38 37 37 36 35 34 34 33 33 34 34 34 33 35 37 37 36 37 34 32 32 31 32 32 31 31 31
MSLP
1011.04 1011.56 1012.11 1012.65 1013.15 1013.68 1014.14 1014.47 1014.82 1015.21 1015.64 1016.06 1016.32 1016.69 1017.00 1017.22 1017.47 1017.79 1018.07 1018.33 1018.64 1018.80 1018.95 1019.20 1019.38 1019.53 1019.83 1020.16 1020.39 1020.66 1021.03 1021.30 1021.16 1019.42 1018.96 1018.33 1017.96 1017.71 1017.22 1016.88 1016.58 1016.09 1015.68
1010.07 1010.70 1011.12 1011.73 1012.37 1012.96 1013.28 1013.49 1013.92 1014.40 1014.84 1015.21 1015.69 1016.12 1016.48 1016.66 1016.84 1017.14 1017.46 1017.71 1017.99 1018.22 1018.30 1018.60 1018.76 1018.98 1019.31 1019.45 1019.76 1020.01 1020.21 1020.25 1020.42 1019.96 1018.82 1018.39 1018.02 1017.42 1017.07 1016.82 1016.26 1015.74 1015.38
1009.38 1009.93 1010.44 1010.84 1011.40 1011.74 1012.09 1012.56 1013.04 1013.53 1013.98 1014.54 1015.05 1015.40 1015.68 1015.89 1016.16 1016.37 1016.58 1016.90 1017.18 1017.38 1017.52 1017.88 1018.06 1018.40 1018.76 1018.96 1019.09 1019.31 1019.34 1019.39 1019.73 1019.56 1019.03 1018.42 1017.78 1017.13 1016.99 1016.48 1016.26 1015.71 1015.32
1008.44 1008.96 1009.43 1009.75 1009.91 1010.27 1010.86 1011.47 1012.00 1012.43 1012.98 1013.49 1013.94 1014.35 1014.69 1015.00 1015.25 1015.50 1015.79 1016.10 1016.41 1016.57 1016.76 1017.17 1017.37 1017.70 1018.06 1018.15 1018.33 1018.36 1018.56 1018.79 1018.75 1018.97 1018.79 1018.24 1017.79 1017.20 1017.07 1016.98 1016.27 1015.75 1015.05
1007.56 1007.99 1007.98 1008.42 1008.96 1009.57 1010.07 1010.42 1010.90 1011.45 1011.82 1012.23 1012.78 1013.24 1013.67 1014.10 1014.30 1014.64 1015.00 1015.34 1015.69 1015.92 1016.25 1016.52 1016.77 1017.08 1017.17 1017.31 1017.51 1017.63 1017.82 1017.95 1018.23 1018.23 1018.08 1017.88 1017.72 1017.31 1017.12 1016.79 1016.43 1015.65 1015.00
1006.48 1006.53 1006.86 1007.48 1008.06 1008.59 1009.09 1009.53 1010.14 1010.54 1010.92 1011.43 1011.86 1012.20 1012.72 1013.03 1013.22 1013.64 1014.04 1014.61 1014.99 1015.37 1015.81 1015.97 1016.34 1016.53 1016.59 1016.68 1016.76 1016.72 1016.92 1017.33 1017.35 1017.61 1017.70 1017.68 1017.30 1017.10 1016.70 1016.59 1016.30 1015.89 1015.09
1005.10 1005.38 1005.89 1006.33 1006.82 1007.20 1007.81 1008.59 1008.99 1009.37 1009.95 1010.35 1010.82 1011.25 1011.66 1011.97 1012.31 1012.78 1013.30 1013.74 1014.31 1014.75 1015.10 1015.54 1015.88 1015.93 1016.05 1016.27 1016.31 1016.54 1016.54 1016.30 1016.49 1016.86 1016.92 1017.06 1016.92 1016.54 1016.47 1016.38 1016.21 1015.96 1015.49
1004.14 1004.25 1004.60 1005.13 1005.55 1006.01 1006.55 1007.06 1007.65 1008.18 1008.65 1009.12 1009.58 1010.03 1010.67 1010.89 1011.25 1011.85 1012.53 1013.07 1013.69 1014.03 1014.46 1014.93 1015.30 1015.41 1015.55 1015.84 1016.13 1016.22 1016.07 1016.18 1016.26 1016.24 1016.46 1016.50 1016.20 1016.14 1016.15 1016.34 1016.18 1016.00 1015.39
1003.31 1003.31 1003.42 1003.66 1004.05 1004.70 1005.41 1005.86 1006.31 1006.94 1007.49 1007.77 1008.09 1008.92 1009.50 1009.98 1010.35 1010.99 1011.72 1012.48 1013.17 1013.57 1013.94 1014.38 1014.74 1014.85 1015.03 1015.44 1015.62 1015.69 1015.96 1016.01 1015.89 1015.77 1015.76 1015.67 1015.82 1015.70 1015.80 1016.21 1016.22 1016.11 1015.74
1002.34 1002.01 1002.14 1002.73 1003.20 1003.56 1003.81 1004.36 1004.76 1005.46 1005.80 1006.59 1007.16 1007.55 1008.11 1008.88 1009.44 1010.07 1010.78 1011.79 1012.54 1013.12 1013.55 1013.89 1014.19 1014.39 1014.70 1014.85 1015.11 1015.33 1015.62 1015.73 1015.84 1015.88 1015.88 1016.05 1016.13 1016.02 1015.52 1015.84 1016.30 1016.45 1016.08
1001.28 1001.46 1001.59 1001.77 1002.08 1002.41 1002.90 1003.46 1003.83 1004.50 1005.13 1005.68 1006.25 1006.83 1007.22 1007.76 1008.52 1009.18 1009.87 1010.73 1011.33 1012.26 1012.91 1013.49 1013.74 1014.00 1014.16 1014.44 1014.50 1014.75 1015.03 1015.38 1015.52 1015.78 1016.06 1016.12 1016.14 1016.06 1016.38 1016.28 1016.00 1016.04 1016.19
1000.89 1000.93 1000.99 1001.13 1001.42 1001.80 1002.26 1002.75 1003.21 1003.85 1004.52 1005.14 1005.77 1006.37 1006.73 1007.15 1007.69 1008.39 1008.91 1009.50 1010.36 1011.20 1012.08 1012.68 1013.21 1013.52 1013.85 1013.99 1014.06 1014.24 1014.55 1015.01 1015.48 1015.83 1015.98 1016.10 1016.23 1016.42 1016.24 1016.13 1016.17 1015.83 1015.55
1000.69 1000.74 1000.75 1000.84 1001.02 1001.32 1001.82 1002.34 1002.92 1003.23 1003.69 1004.22 1004.83 1005.41 1005.98 1006.60 1007.18 1007.54 1008.09 1008.93 1009.74 1010.65 1011.31 1012.07 1012.70 1013.11 1013.46 1013.64 1013.82 1014.06 1014.45 1014.90 1015.40 1015.86 1016.19 1016.22 1016.16 1016.29 1016.23 1015.98 1015.48 1015.23 1015.19
1000.62 1000.46 1000.44 1000.64 1000.78 1001.01 1001.31 1001.71 1002.20 1002.62 1002.86 1003.20 1003.69 1004.26 1004.92 1005.78 1006.49 1007.14 1007.75 1008.51 1009.27 1010.18 1011.06 1011.89 1012.40 1012.88 1013.19 1013.43 1013.78 1014.05 1014.31 1014.64 1015.22 1015.61 1015.76 1015.98 1015.92 1015.87 1015.93 1015.67 1015.60 1015.36 1014.92
1000.44 1000.27 1000.25 1000.23 1000.33 1000.63 1000.87 1001.08 1001.16 1001.22 1001.34 1001.88 1002.28 1002.76 1003.59 1004.40 1004.76 1005.51 1006.54 1007.66 1008.59 1009.64 1010.96 1011.87 1012.55 1012.85 1013.22 1013.60 1013.88 1014.09 1014.36 1014.71 1015.01 1015.31 1015.52 1015.77 1015.89 1015.70 1015.63 1015.40 1015.08 1015.04 1014.76
1000.19 1000.06 1000.02 1000.15 1000.30 1000.39 1000.58 1000.83 1000.77 1000.66 1000.78 1000.94 1001.20 1001.57 1002.33 1002.67 1003.78 1005.00 1006.04 1007.01 1008.01 1009.20 1010.45 1011.36 1011.96 1012.35 1012.85 1013.23 1013.56 1013.90 1014.18 1014.40 1014.66 1014.94 1015.06 1015.14 1015.22 1015.09 1015.14 1014.92 1014.74 1014.70 1014.63
999.92 999.70 999.70 999.85 1000.13 1000.35 1000.64 1000.77 1000.93 1000.96 1000.67 1000.65 1000.90 1001.43 1001.93 1002.39 1003.26 1004.46 1005.61 1006.71 1007.71 1008.82 1009.59 1010.53 1011.20 1011.84 1012.23 1012.45 1012.74 1013.20 1013.51 1013.71 1013.91 1014.26 1014.62 1014.78 1014.65 1014.68 1014.81 1014.65 1014.32 1014.23 1013.88
999.28 999.27 999.34 999.32 999.59 999.94 1000.28 1000.51 1000.79 1000.90 1000.90 1001.06 1001.10 1001.24 1001.62 1002.11 1002.94 1004.04 1005.26 1006.62 1007.85 1008.54 1009.07 1009.94 1010.63 1011.05 1011.43 1011.84 1012.25 1012.59 1013.02 1013.38 1013.74 1014.00 1014.20 1014.16 1014.20 1014.52 1014.48 1014.11 1013.96 1013.83 1013.50
998.54 998.33 998.49 998.82 998.98 999.00 999.34 1000.01 1000.49 1000.94 1001.07 1001.26 1001.46 1001.65 1001.67 1002.12 1002.95 1003.94 1004.91 1005.67 1006.84 1007.96 1008.62 1009.33 1009.84 1010.28 1010.73 1011.16 1011.52 1011.88 1012.25 1012.51 1012.80 1013.31 1013.79 1013.85 1013.65 1013.94 1013.98 1013.58 1013.41 1013.39 1013.03
997.73 997.61 997.59 998.00 998.58 998.86 998.85 999.01 999.80 1000.31 1000.85 1001.24 1001.51 1001.71 1002.17 1002.89 1003.58 1004.39 1004.98 1005.60 1006.49 1007.32 1008.08 1008.68 1009.11 1009.51 1009.94 1010.42 1010.81 1011.24 1011.66 1011.89 1012.48 1012.78 1012.94 1013.20 1013.25 1013.26 1013.31 1013.40 1012.97 1012.94 1012.89
996.76 996.99 997.00 997.35 997.47 997.78 998.07 998.15 998.54 999.28 1000.00 1000.59 1000.80 1001.02 1001.25 1001.88 1002.86 1003.69 1004.50 1005.29 1005.96 1006.69 1007.29 1007.85 1008.44 1008.84 1009.28 1009.70 1010.26 1010.78 1011.03 1011.07 1011.39 1011.84 1012.40 1012.34 1012.41 1012.69 1012.47 1012.72 1012.47 1012.17 1012.18
996.30 996.33 996.41 996.45 996.66 996.98 997.31 997.37 997.68 998.18 998.75 999.44 1000.25 1000.80 1001.23 1001.82 1002.52 1003.27 1004.00 1004.67 1005.26 1005.82 1006.39 1007.02 1007.60 1008.16 1008.58 1009.10 1009.40 1009.90 1010.29 1010.59 1010.73 1011.03 1011.49 1011.78 1011.90 1012.07 1011.88 1011.94 1011.88 1011.73 1011.65
995.72 995.81 995.69 995.92 996.00 996.05 996.85 996.96 997.25 997.72 998.15 998.74 999.57 1000.37 1001.15 1001.84 1002.34 1002.95 1003.48 1004.08 1004.73 1005.33 1005.87 1006.43 1007.10 1007.65 1008.01 1008.43 1008.62 1009.02 1009.34 1009.67 1009.82 1010.22 1010.48 1010.58 1010.71 1011.15 1011.05 1010.99 1010.93 1010.97 1010.92
994.76 994.89 994.82 995.03 995.39 995.59 996.38 996.75 996.83 997.31 997.94 998.57 999.17 999.82 1000.47 1001.16 1001.83 1002.47 1003.15 1003.87 1004.48 1005.00 1005.49 1006.14 1006.65 1007.10 1007.48 1007.76 1007.88 1008.17 1008.23 1008.39 1008.88 1009.40 1009.70 1009.92 1009.75 1010.06 1010.25 1010.15 1010.14 1010.17 1009.98
994.11 994.03 993.94 993.87 994.45 995.35 996.14 996.54 996.96 997.40 997.99 998.59 999.29 999.87 1000.48 1001.22 1002.02 1002.79 1003.29 1003.80 1004.45 1004.82 1005.52 1006.03 1006.45 1006.72 1007.01 1007.11 1007.26 1007.80 1008.10 1008.29 1008.47 1009.12 1009.06 1009.03 1008.86 1009.03 1009.40 1009.52 1009.35 1009.48 1009.37
992.98 993.15 993.60 993.50 994.01 994.97 995.72 996.28 996.74 997.29 997.97 998.76 999.58 1000.30 1000.85 1001.39 1002.08 1002.87 1003.53 1004.23 1004.61 1004.99 1005.62 1006.14 1006.40 1006.53 1006.78 1007.07 1006.95 1007.23 1007.50 1007.79 1007.97 1007.91 1008.23 1008.59 1008.54 1008.42 1008.25 1008.31 1008.42 1008.40 1008.54
Wind_Speed
12 11 10 10 10 8 9 9 9 6 7 7 7 6 7 7 7 6 6 6 6 6 5 6 6 5 4 4 4 4 4 5 6 5 3 3 4 5 7 5 5 6 6
11 11 12 8 8 10 11 10 8 8 7 8 7 7 7 7 7 7 7 6 7 7 6 6 6 3 5 5 4 6 5 5 5 7 3 3 4 3 5 6 5 5 5
9 11 9 11 11 13 12 10 9 8 8 7 7 8 8 8 8 7 7 7 7 7 7 6 6 5 5 4 4 5 4 4 4 4 4 2 4 2 3 4 4 6 3
11 11 12 13 14 13 11 10 11 10 9 9 9 9 8 8 8 8 8 7 7 7 6 6 6 6 6 6 5 6 4 4 4 3 4 4 4 3 2 3 4 2 7
12 12 15 12 10 9 10 11 10 10 11 11 10 9 8 8 7 8 8 8 7 7 5 6 6 7 10 8 4 5 5 3 2 3 3 2 2 3 3 2 3 6 5
12 15 12 10 10 12 11 11 10 10 10 10 11 11 10 7 12 15 10 7 7 7 6 6 5 7 7 8 7 9 7 4 3 2 1 3 4 3 3 3 2 7 8
13 13 11 12 13 14 12 10 12 13 10 13 11 11 11 9 15 16 16 7 7 7 7 6 5 4 5 4 5 2 0 1 2 4 3 3 3 3 2 3 4 5 6
13 13 13 12 14 12 12 14 13 11 13 13 13 12 10 9 16 17 16 7 6 7 7 7 6 5 5 5 3 2 2 2 3 2 5 5 5 4 1 2 3 4 5
11 13 13 15 15 12 13 15 13 11 11 13 11 13 14 10 17 17 14 8 6 7 6 6 6 6 7 7 4 3 2 3 3 2 3 3 6 7 7 3 3 4 4
12 15 13 10 12 13 15 15 11 11 14 11 12 14 16 12 17 19 14 6 7 5 5 6 11 7 9 7 5 3 3 5 1 1 2 4 6 6 7 3 1 2 2
8 7 8 9 13 14 12 9 10 11 8 11 12 11 13 13 12 19 19 8 8 6 5 5 4 9 9 7 5 5 6 4 3 2 1 2 2 4 4 4 2 2 2
7 7 8 8 9 7 9 7 7 10 10 10 9 7 8 8 14 18 21 17 13 8 6 4 5 10 7 5 3 6 7 7 3 2 1 1 2 3 3 4 5 4 4
4 7 7 6 6 6 8 7 6 9 9 10 10 10 9 7 7 17 20 18 18 7 5 9 12 9 6 2 7 9 7 3 3 1 1 2 1 3 4 4 4 4 5
7 6 5 6 6 6 5 6 7 8 9 9 9 10 9 9 8 6 8 10 14 8 12 7 7 6 6 5 4 4 3 3 3 3 3 1 2 2 2 2 2 2 4
6 6 5 5 6 6 6 7 8 9 11 10 10 11 12 11 13 16 14 10 9 10 9 4 3 3 3 3 2 3 2 2 3 2 2 1 2 1 2 2 2 3 3
6 5 4 4 4 4 5 4 3 7 11 11 10 11 5 8 19 21 19 18 20 23 5 4 4 4 5 4 4 4 3 5 3 3 2 2 3 2 3 2 2 5 7
7 6 4 4 4 4 4 5 5 4 3 10 13 14 16 17 23 22 21 21 22 19 4 4 4 5 5 5 5 4 4 4 4 3 2 3 3 2 4 3 5 5 7
7 10 5 5 5 4 5 4 4 5 6 3 5 11 15 20 23 24 23 18 12 5 3 4 5 5 5 4 4 4 4 4 3 3 4 3 2 2 3 4 6 6 6
6 6 5 5 5 6 6 5 5 4 4 5 5 5 14 20 22 24 24 7 10 7 4 4 4 5 4 5 4 4 5 4 4 3 3 3 3 3 3 4 4 11 12
7 12 7 5 5 5 5 7 6 6 7 7 6 7 8 10 10 11 5 5 6 6 5 5 5 5 5 5 5 4 4 4 4 4 4 4 3 4 3 4 4 5 6
5 5 9 5 6 7 7 8 9 8 9 9 8 10 19 11 10 10 8 7 7 6 6 6 5 5 5 5 4 4 5 4 5 4 4 4 4 4 4 4 4 4 6
6 6 6 8 6 7 8 7 9 10 11 10 6 9 20 6 8 8 8 7 6 6 5 5 5 5 5 5 6 5 4 4 5 4 4 4 4 4 4 4 4 4 6
7 8 7 5 6 7 7 7 7 8 8 8 9 9 10 7 7 7 8 7 6 6 5 5 4 4 4 4 4 5 5 5 5 5 5 5 4 5 6 6 5 6 6
8 9 9 6 5 5 5 6 6 8 8 8 9 9 9 8 7 7 6 5 5 5 4 4 4 6 5 5 4 5 5 5 4 5 7 6 6 7 6 6 6 7 7
8 8 7 8 7 6 6 6 5 6 7 7 7 7 7 6 6 5 5 5 4 5 5 4 3 5 6 7 5 5 5 9 7 8 5 7 8 9 8 7 7 7 9
5 5 4 6 7 7 7 7 7 8 8 7 6 6 6 7 6 6 5 5 4 4 5 3 4 5 3 3 3 5 7 8 7 11 6 5 6 7 7 8 9 7 9
Wind_Direction
193 194 197 198 198 190 200 211 211 195 197 209 207 206 208 203 198 190 203 201 205 205 203 210 223 202 210 207 203 197 203 183 238 282 252 269 282 283 297 299 290 283 293
194 192 200 188 184 197 210 211 190 206 195 202 197 202 205 205 195 192 199 197 205 213 213 209 230 198 217 215 200 211 211 199 208 269 275 289 258 284 268 291 298 297 287
180 192 196 200 194 208 211 203 190 196 199 196 194 201 204 204 195 202 198 199 205 211 210 206 220 190 222 214 212 221 217 216 204 228 279 268 271 271 309 288 281 290 287
190 194 204 207 207 209 204 197 196 194 193 193 196 202 205 203 199 197 194 200 206 211 208 205 210 203 216 216 218 228 223 221 212 216 255 257 249 287 262 272 320 294 311
198 201 214 209 204 201 199 201 199 192 202 198 191 198 200 200 199 193 194 195 199 208 205 204 211 214 228 216 197 230 214 218 242 246 252 274 275 311 316 290 291 303 296
203 213 210 197 188 203 204 200 193 202 200 193 199 196 197 204 200 198 185 187 196 194 202 206 205 228 241 244 252 248 210 186 216 215 231 264 274 260 261 293 314 324 330
204 214 203 203 203 204 201 192 203 204 190 202 198 194 202 200 198 202 195 183 185 192 195 189 207 212 211 227 259 266 268 251 188 188 236 242 266 248 272 293 298 306 291
209 212 206 202 210 209 196 200 206 196 196 199 201 198 194 204 197 200 194 181 183 190 184 191 200 204 212 212 171 188 252 290 264 233 204 245 235 268 123 293 288 275 277
213 217 213 206 210 200 196 205 205 192 193 202 197 191 196 203 194 193 179 169 181 189 182 185 195 200 220 198 181 241 300 292 298 340 83 50 31 14 24 23 347 352 317
221 224 222 213 213 205 205 205 198 195 205 195 198 196 196 196 191 189 172 163 175 177 181 192 203 191 204 217 196 206 271 262 225 66 358 15 22 9 15 78 324 332 287
242 230 211 199 205 209 209 195 192 197 190 192 198 194 189 190 188 187 174 175 180 169 176 186 191 193 197 218 236 185 216 168 150 125 47 358 360 355 349 354 319 209 246
243 232 224 212 210 200 191 187 181 181 186 191 192 191 195 182 181 190 185 184 173 164 182 172 177 188 203 229 244 228 160 130 129 119 84 326 340 342 320 327 316 304 243
270 258 247 227 210 196 190 184 183 184 190 193 193 195 192 179 181 190 187 182 176 161 151 168 173 180 200 185 163 150 140 137 149 149 245 255 224 272 292 301 296 297 303
280 273 260 234 223 201 191 182 191 190 198 195 193 196 188 178 185 174 179 174 170 155 154 157 159 163 168 174 162 146 154 163 166 179 212 224 260 299 289 258 283 311 313
258 261 257 233 210 201 204 194 201 207 197 192 200 193 180 187 197 180 170 165 160 156 131 117 142 147 168 187 182 185 177 167 186 192 184 247 273 266 279 294 258 294 295
266 261 244 230 223 209 187 195 25 203 210 216 194 193 191 169 157 165 168 158 152 152 128 159 175 176 190 187 189 194 194 210 203 187 201 212 252 275 273 272 291 324 323
248 258 250 229 217 198 196 194 184 26 128 171 165 159 170 158 158 157 154 153 157 156 151 164 169 181 188 189 186 183 194 195 170 185 216 241 249 261 306 270 320 320 317
238 246 238 228 210 194 196 195 170 176 164 147 155 159 153 151 152 152 149 141 162 169 143 159 184 181 184 183 186 189 191 190 193 205 221 225 239 246 273 282 316 310 297
238 237 215 221 212 195 169 168 173 170 157 146 127 110 143 145 148 151 155 153 167 172 163 178 178 176 178 184 190 188 192 191 186 191 212 219 234 236 271 280 299 313 315
252 246 213 192 189 193 183 165 165 165 163 166 162 152 143 133 151 163 161 148 158 168 170 180 182 180 184 184 186 187 190 187 194 202 213 219 230 232 247 275 285 299 298
246 227 215 204 192 195 190 188 176 169 170 177 178 175 170 161 166 172 168 167 168 169 173 180 181 180 182 180 179 186 198 190 193 196 215 212 212 233 242 250 259 277 291
250 239 202 206 192 183 202 187 180 180 178 173 164 171 172 156 159 163 167 173 174 169 170 170 174 187 178 181 182 188 192 199 196 195 204 212 210 231 239 250 253 266 279
230 228 210 207 201 186 193 185 179 179 169 159 155 159 172 166 163 167 169 166 164 168 163 161 167 179 187 194 183 186 186 201 205 185 201 206 196 222 227 244 255 260 268
221 216 206 193 174 163 180 183 161 156 155 155 156 159 164 163 160 158 151 146 146 152 150 160 172 186 185 189 189 195 201 203 189 206 201 208 212 232 232 241 248 256 260
211 201 188 169 162 159 149 144 138 135 139 146 146 146 138 131 128 128 128 127 131 128 146 160 179 188 198 200 200 212 224 233 216 221 212 217 221 224 229 235 242 251 260
185 166 168 148 141 149 153 149 142 137 133 127 119 118 124 122 115 114 112 127 120 119 140 167 182 184 200 230 228 229 233 245 242 238 218 220 230 232 230 236 240 246 256